STARLINK-33687, 63485

Orbit data source: Space-Track

STARLINK-33687, 63485 is a payload satellite owned by SpaceX/Seattle (US) in LEO that was launched on Sun, 06 Apr 2025 UTC via an FALCON 9 launch vehicle from the Air Force Eastern Test Range (AFETR). Payload-class satellites include a variety of spacecraft equipped with specific instruments for various scientific and technological missions. These include communications satellites like Starlink; space stations such as the ISS; scientific satellites like the Hubble; Earth observation satellites from companies like Planet Labs, Umbra, and HawkEye 360; GPS; miniature CubeSats for education and research; and military/defense satellites.

Loading next visibility...
Identifier
63485, 2025-070AB
Orbit
LEO
Country
Flag of USUS
Related business
Manufacturer
SpaceX/Seattle
Mission
Operational Commercial Communications
Bus & Motor
STARLINK V2MO, Unknown motor
Mass
575 kg wet, ~530 kg dry
Launch date (UTC)
2025-04-06 (1 year ago)
Launch vehicle
FALCON 9
Launch site
Air Force Eastern Test Range (AFETR)
Object type
Payload
Rocket body
Debris
Shape & HBR
Box + 2 Pan, 17.7 m
Radar Cross Section
36.964 m², Large (>1 m²)

Expand to show TLE details & history
Last TLE update: 6 hours ago

TLE from 6 hours ago
0 STARLINK-33687
1 63485U 25070AB  26170.06716895  .00016606  00000-0  61143-3 0  9995
2 63485  43.0004  46.9649 0001638 271.2857  88.7807 15.27590482 68484
Epoch: 2026-06-19T01:36Z
TLE epoch observation values (Epoch: 2026-06-19T01:36:43.397Z)
Latitude
-0.00001°
Longitude
115.4826°
Altitude
482.769 km
Speed
7.626 km/s
True Right ascension
03h 07m 51s
True Declination
0° 00' 00"
Sunlit
Object was in daylight at epoch
Visualization orbit readout
Latitude
Unknown
Longitude
Unknown
Altitude
Unknown
Speed
Unknown
Apparent Right ascension
Unknown
Apparent Declination
Unknown
Sunlit
N/A
Visualization observer readout
Local Sidereal Time
18:43:21
Azimuth
Unknown
Elevation
Unknown
Doppler factor
Unknown
Orbital elements
Apogee altitude
486.087 km
Perigee altitude
483.839 km
Semi-major axis
6,863.1 km
Eccentricity
0.00016
Inclination
43.0004°
RAAN
46.9649°
Arg. of periapsis
271.2857°
True anomaly
88.79947°
Mean anomaly
88.7807°
Eccentric anomaly
88.79008°
Mean motion
3.81736 °/min
Orbital period
94.31 mins
BSTAR
0.00061143
Loading maneuver chart data...
Computing Atmospheric mass density...
Loading historical data...
Loading historical data...
Loading historical data...
Loading historical data...
Loading historical data...
Loading historical data...
Loading historical data...

Documentation

Showing up to 5 results
|